Regional Weather Roundup
Issued by NWS Albany, NY

Home | Current Version | Previous Version | Text Only | Print | Product List | Glossary On
Versions: 1 2 3 4 5 6 7 8 9 10 11 12 13 14 15 16 17 18 19 20 21 22 23 24 25 26 27 28 29 30 31 32 33 34 35 36 37 38 39 40 41 42 43 44 45 46 47 48 49 50
000
ASUS41 KALY 310810
RWRALY

NEW YORK STATE HOURLY WEATHER ROUNDUP
NATIONAL WEATHER SERVICE ALBANY NY
400 AM EDT SUN AUG 31 2014

NOTE: "FAIR" INDICATES FEW OR NO CLOUDS BELOW 12,000 FEET WITH NO
SIGNIFICANT WEATHER AND/OR NO OBSTRUCTIONS TO VISIBILITY.

NYZ032-033-038>043-046>054-057>066-NYZ062>081-310900-
EAST


CITY           SKY/WX    TMP DP  RH WIND       PRES   REMARKS
ALBANY         MOCLDY    70  63  78 SE9       30.06F
GLENS FALLS    CLOUDY    69  63  81 S6        30.05F
POUGHKEEPSIE   CLOUDY    73  62  68 CALM      30.11S
MONTGOMERY     CLOUDY    69  64  84 S5        30.12S
WHITE PLAINS   MOCLDY    71  65  81 CALM      30.13F
ISLIP          CLOUDY    72  67  84 SW7       30.12F
NEW YORK CITY  CLOUDY    73  64  73 SW7       30.12F
CENTRAL PARK   CLOUDY    73  63  70 VRB3      30.16S
$$

NYZ005>009-017-018-044>046-055-056-310900-
CENTRAL


CITY           SKY/WX    TMP DP  RH WIND       PRES   REMARKS
FULTON         CLOUDY    74  66  76 S9        29.98R
SYRACUSE       CLOUDY    76  65  68 S13       29.98F
ROME           CLOUDY    71  65  81 SE8       30.02F
ELMIRA         CLOUDY    73  68  83 SW6       30.04F
BINGHAMTON     MOCLDY    68  64  87 S9        30.09F
MONTICELLO     CLOUDY    66  63  88 CALM      30.15F
$$

NYZ026>034-041>043-310900-
NORTH


CITY           SKY/WX    TMP DP  RH WIND       PRES   REMARKS
WATERTOWN      MOCLDY    74  64  71 S14G24    29.93S
FORT DRUM      NOT AVBL
MASSENA        CLOUDY    69  68  96 S8        29.92F
SARANAC LAKE   CLOUDY    68  62  81 SW15      30.00S
PLATTSBURGH    CLOUDY    68  62  81 CALM      29.95S
$$

NYZ001>004-010>016-019>021-310900-
WEST


CITY           SKY/WX    TMP DP  RH WIND       PRES   REMARKS
NIAGARA FALLS  CLOUDY    75  68  78 S10       29.93F
BUFFALO        LGT RAIN  73  69  87 SW5       29.95F
DUNKIRK        LGT RAIN  72  67  84 SW13G35   29.97S
JAMESTOWN      CLOUDY    70  66  88 S8        30.04S
WELLSVILLE     CLOUDY    70  65  84 S5        30.10R
ROCHESTER      LGT RAIN  73  69  87 SW12      29.96S
PENN YAN       CLOUDY    73  67  81 SW8       30.03R
$$

             KEY
       WCI = WIND CHILL INDEX
       VSB = VISIBILITY
       HX  = HEAT INDEX
$$


USA.gov is the U.S. government's official web portal to all federal, state and local government web resources and services.